Preview of NWS' New Version of Forecast
This preview is not operational and should not be used for support decisions.

Regional Weather Roundup (RWR)

Issued by National Weather Service (NWS)

                            
000
ASUS43 KDMX 190001
RWRIA 

WEATHER ROUNDUP FOR IOWA
NATIONAL WEATHER SERVICE DES MOINES IA
700 PM CDT TUE JUN 18 2019

NOTE: "FAIR" INDICATES FEW OR NO CLOUDS BELOW 12,000 FEET WITH NO
SIGNIFICANT WEATHER AND/OR OBSTRUCTIONS TO VISIBILITY.

* - THESE STATIONS ARE NOT NWS STATIONS...THUS NOT UNDER NWS
QUALITY CONTROL.  THEY ALSO DO NOT REPORT WEATHER SUCH 
AS PRECIPITATION OR FOG.  

IAZ001>003-012>014-020>022-031>034-043>046-190100-
   NORTHWEST IOWA
  
CITY           SKY/WX    TMP DP  RH WIND       PRES   REMARKS
CARROLL *      LGT RAIN  64  63  94 N6        29.91F                  
CHEROKEE *     SUNNY     68  62  80 S5        29.91F                  
DENISON *      SUNNY     64  64 100 CALM      29.93F FOG              
LE MARS *      SUNNY     70  61  73 S9        29.91S                  
SHELDON *      SUNNY     73  48  40 NE6       29.90S                  
SIOUX CITY     MOSUNNY   67  60  78 S7        29.91F                  
6HR MIN TEMP:  66; 6HR MAX TEMP:  69;                                

SPENCER        SUNNY     73  52  47 N8        29.91F                  
6HR MIN TEMP:  73; 6HR MAX TEMP:  77;                                

STORM LAKE *   SUNNY     66  63  88 S6        29.89F                  
$$
 
IAZ055>058-069>071-079>083-090>094-190100-
   SOUTHWEST IOWA
  
CITY           SKY/WX    TMP DP  RH WIND       PRES   REMARKS
ATLANTIC *     LGT RAIN  64  64 100 NE3G13    29.90F                  
AUDUBON *      RAIN      64  63  94 CALM      29.93S                  
CLARINDA *     MOSUNNY   68  66  94 N10       29.90F                  
COUNCIL BLFS * PTSUNNY   66  66 100 NE7       29.89F FOG              
CRESTON *      MOSUNNY   68  64  88 N10       29.89S                  
HARLAN  *      LGT RAIN  64  64 100 NE6       29.91F                  
LAMONI         MOSUNNY   76  61  59 MISG      29.87S                  
6HR MIN TEMP:  76; 6HR MAX TEMP:  82;                                

RED OAK *      LGT RAIN  66  66 100 N7        29.90S                  
SHENANDOAH *   CLOUDY    66  66 100 MISG      29.88F                  
$$
 
IAZ047>049-059>061-072>074-084-190100-
   CENTRAL IOWA
  
CITY           SKY/WX    TMP DP  RH WIND       PRES   REMARKS
AMES           LGT RAIN  68  65  90 NW7       29.90S                  
6HR MIN TEMP:  67; 6HR MAX TEMP:  70; 6HR PCP: TRACE;                

ANKENY *       LGT RAIN  70  64  83 VRB7      29.89F                  
BOONE *        RAIN      66  66 100 N5        29.90S                  
CHARITON *     MOSUNNY   75  64  69 N7        29.86S                  
DES MOINES     CLOUDY    70  64  81 N6        29.88S                  
6HR MIN TEMP:  70; 6HR MAX TEMP:  77; 6HR PCP: TRACE;                

GRINNELL*      PTSUNNY   71  63  75 N7        29.89F                  
KNOXVILLE *    CLOUDY    75  63  64 NE5       29.87R                  
MARSHALLTOWN   CLOUDY    69  63  81 NW5       29.88F                  
6HR MIN TEMP:  66; 6HR MAX TEMP:  70; 6HR PCP:  0.02;                

NEWTON *       MOSUNNY   70  64  83 N10       29.88S                  
PELLA *        SUNNY     75  60  60 CALM      29.88S                  
PERRY *        DRIZZLE   67  67 100 CALM      29.91S                  
$$
 
IAZ004>006-015-016-023>025-035-036-190100-
   NORTH CENTRAL IOWA
  
CITY           SKY/WX    TMP DP  RH WIND       PRES   REMARKS
ALGONA *       SUNNY     72  54  53 CALM      29.90F                  
CLARION *      PTSUNNY   70  59  68 CALM      29.91S                  
ESTHERVILLE    SUNNY     69  53  56 N5        29.91S                  
6HR MIN TEMP:  68; 6HR MAX TEMP:  72;                                

FORT DODGE *   PTSUNNY   68  63  84 CALM      29.92F                  
MASON CITY     PTSUNNY   71  56  58 NW6       29.91S                  
6HR MIN TEMP:  69; 6HR MAX TEMP:  74;                                

FOREST CITY *  FAIR      72  52  49 N7        29.90F                  
IOWA FALLS *   DRIZZLE   69  64  86 NW3       29.91S                  
$$

IAZ007>011-017>019-026>030-037>042-050>054-066-190100-
   NORTHEAST IOWA
  
CITY           SKY/WX    TMP DP  RH WIND       PRES   REMARKS
CEDAR RAPIDS   FAIR      73  62  68 N6        29.87F                  
6HR MIN TEMP:  72; 6HR MAX TEMP:  76;                                

CHARLES CITY * CLOUDY    72  57  60 W6        29.89F                  
CLINTON *      CLOUDY    78  63  59 NW6       29.87S HX  80           
DECORAH *      CLOUDY    72  61  68 CALM      29.87F                  
DUBUQUE        CLOUDY    72  64  76 W5        29.88F                  
6HR MIN TEMP:  71; 6HR MAX TEMP:  75;                                

MONTICELLO *   CLOUDY    73  64  73 NW3       29.87F                  
OELWEIN *      CLOUDY    70  66  88 NW7       29.89F                  
WATERLOO       CLOUDY    72  63  73 CALM      29.87F                  
6HR MIN TEMP:  70; 6HR MAX TEMP:  74; 6HR PCP: TRACE;                

$$
 
IAZ064-065-067-068-078-190100-
   EAST CENTRAL IOWA
  
CITY           SKY/WX    TMP DP  RH WIND       PRES   REMARKS
DAVENPORT      FAIR      78  60  53 CALM      29.87F                  
6HR MIN TEMP:  76; 6HR MAX TEMP:  81;                                

IOWA CITY      FAIR      77  63  61 N8        29.87F                  
6HR MIN TEMP:  75; 6HR MAX TEMP:  79;                                

MT. PLEASANT * PTSUNNY   79  63  57 CALM      29.85S HX  80           
MUSCATINE *    FAIR      79  63  57 N3        29.85S HX  80           
QUAD CITIES    FAIR      80  60  50 NE5       29.84F HX  81           
6HR MIN TEMP:  78; 6HR MAX TEMP:  83;                                

$$
 
IAZ062-063-075>077-085>089-095>099-190100-
   SOUTHEAST IOWA
  
CITY           SKY/WX    TMP DP  RH WIND       PRES   REMARKS
BURLINGTON     SUNNY     79  60  52 N5        29.84F HX  80           
6HR MIN TEMP:  75; 6HR MAX TEMP:  82;                                

FAIRFIELD *    MOSUNNY   77  61  57 NE6       29.85S                  
FORT MADISON * SUNNY     79  61  53 CALM      29.86S HX  80           
KEOKUK *       SUNNY     77  64  65 CALM      29.85R                  
OSKALOOSA *    FAIR      77  60  56 NE6       29.87R                  
CENTERVILLE *  FAIR      77  63  61 CALM      29.87S                  
OTTUMWA        SUNNY     78  62  57 NE7       29.85F HX  80           
6HR MIN TEMP:  76; 6HR MAX TEMP:  81;                                

WASHINGTON *   SUNNY     77  63  61 N6        29.87S                  
$$

ABBREVIATIONS USED IN REMARKS
   TC - TEMPERATURES IN CELSIUS
  WCI - WIND CHILL INDEX
   HX - HEAT INDEX
  VSB - VISIBILITY  
$$